Theta_e
314 313 314 313 313 313 313 313 312 312 313 313 313 313 313 313 314 314 314 315 315 315 315 316 316 317 313 305 308 317 338 339 320 310 304 300 296 296 295 294 296 295 298 299 301 314 324
313 313 313 313 312 312 312 312 312 312 312 313 312 313 313 313 313 314 314 314 314 314 315 315 316 318 309 298 311 323 318 314 308 303 300 299 300 300 298 296 295 299 299 301 300 319 322
313 312 312 312 311 311 312 312 312 312 312 312 312 312 312 312 313 314 314 314 314 314 314 316 318 316 309 304 316 318 312 305 307 307 305 305 304 303 301 300 302 301 298 300 300 320 319
312 311 312 311 311 311 311 311 311 311 311 311 312 312 311 312 313 313 314 313 313 314 316 317 322 314 302 312 312 311 312 314 308 308 308 309 307 304 300 303 303 299 296 290 296 311 323
311 311 311 311 310 310 310 310 310 310 311 311 312 311 311 311 312 313 313 312 314 316 317 321 311 309 299 317 314 316 314 315 312 310 309 314 306 302 302 296 294 294 291 292 296 300 314
311 310 310 310 309 309 309 309 309 309 310 310 311 311 311 311 311 312 311 311 313 317 317 319 315 301 305 308 313 315 314 316 310 308 306 304 300 297 294 293 287 291 291 293 294 299 299
310 310 310 309 309 308 308 309 309 309 309 310 310 310 310 311 311 311 307 305 301 302 308 304 305 304 307 311 316 311 313 313 309 303 297 299 294 291 295 296 298 296 295 295 297 301 300
309 309 309 309 309 308 308 308 308 309 309 309 309 310 310 310 311 310 304 305 309 302 296 308 309 307 311 311 309 313 313 306 303 297 299 296 292 298 300 299 298 297 295 295 299 306 301
308 308 308 308 308 308 308 309 309 310 310 309 309 309 310 310 309 307 306 307 310 305 297 304 306 306 308 310 307 309 309 307 302 298 298 294 298 303 301 298 298 296 294 295 299 307 308
308 308 308 308 309 308 308 308 309 309 310 309 309 309 309 309 301 301 303 307 311 305 293 300 303 306 307 308 304 313 312 308 302 299 299 297 303 302 300 299 299 293 300 300 300 302 297
308 308 308 308 308 308 309 308 308 309 309 309 308 309 309 308 297 299 306 309 309 305 283 303 304 310 307 304 305 306 313 308 301 301 299 297 300 299 299 301 303 298 302 299 300 300 297
307 308 308 308 308 308 308 308 308 309 308 308 308 309 309 305 299 303 307 306 304 293 284 301 303 302 300 302 304 306 306 309 308 302 301 301 305 303 301 304 302 304 299 296 295 296 290
307 307 307 307 308 308 308 308 308 308 308 308 307 307 305 306 298 304 305 301 290 285 299 297 298 300 299 299 301 303 301 300 297 293 294 300 301 303 306 299 301 298 291 285 286 286 288
307 307 307 307 307 308 308 307 308 307 307 307 306 306 305 306 304 307 304 295 283 294 295 301 299 299 299 300 300 301 299 297 300 299 294 292 292 300 305 300 297 295 293 287 282 284 288
306 307 307 307 307 308 308 307 307 307 306 306 305 299 303 309 309 308 297 285 288 294 299 297 298 294 295 299 301 302 299 297 301 301 295 292 295 304 305 305 300 295 292 296 291 291 289
306 306 307 307 308 308 308 307 307 307 306 305 296 298 303 313 312 307 293 290 292 300 301 302 294 296 293 296 298 299 300 305 303 305 301 298 292 302 304 305 305 298 300 292 290 285 284
305 306 306 307 308 307 308 307 307 307 306 304 297 297 306 318 316 304 291 291 298 306 309 305 301 299 297 296 298 297 299 303 309 308 307 299 294 298 301 298 298 296 294 294 293 291 286
305 305 306 306 307 307 307 307 307 306 304 299 294 289 306 311 298 296 294 301 303 303 308 306 305 303 301 301 296 297 298 302 310 311 303 304 294 292 296 303 306 299 298 296 290 289 292
305 305 305 306 307 307 307 307 307 306 305 297 290 294 307 305 293 289 293 296 302 300 302 304 303 304 304 300 295 299 301 309 312 310 307 307 295 289 293 298 302 300 300 299 296 294 292
304 304 305 305 306 307 307 307 307 306 305 295 294 291 294 296 294 289 289 292 294 301 300 308 306 306 301 299 301 300 302 306 309 311 317 311 297 292 291 294 299 298 301 303 296 290 292
303 303 304 304 305 305 306 307 307 306 305 297 293 288 290 286 288 288 289 293 293 293 299 304 302 303 300 294 297 298 302 303 306 312 310 308 296 300 302 300 302 301 302 302 299 298 293
303 302 303 304 304 305 305 306 307 306 304 297 291 289 290 286 288 288 289 288 291 293 295 293 295 300 302 295 298 295 298 299 299 304 305 307 297 302 298 302 302 301 303 302 301 301 299
302 302 303 303 304 304 304 305 307 306 301 292 294 295 289 288 287 285 286 289 291 293 296 298 296 295 296 298 298 299 304 303 302 299 300 304 302 299 293 303 301 293 300 301 302 302 301
302 303 303 303 303 304 304 304 305 306 303 292 291 291 286 284 287 288 290 291 291 291 290 295 295 293 297 300 299 304 304 305 305 303 303 300 301 300 295 298 288 297 305 306 304 304 306
303 303 303 303 303 303 304 304 305 305 306 294 293 290 288 283 288 289 289 289 289 289 289 291 295 295 296 295 295 293 295 297 300 303 302 305 302 296 292 292 296 300 304 303 302 301 306
303 303 303 303 303 303 303 304 304 304 306 295 292 294 291 284 283 291 288 288 284 283 287 291 294 293 293 294 293 287 287 294 292 297 306 303 304 298 293 289 285 297 307 311 308 295 308
303 303 303 303 303 303 303 304 304 304 305 297 294 294 292 287 290 289 285 284 289 286 284 286 287 286 293 288 288 286 288 296 288 292 294 294 296 294 291 289 294 305 309 312 295 295 305
303 303 302 302 303 303 304 304 303 303 304 298 294 295 292 287 289 292 293 287 287 285 282 284 283 287 285 284 289 291 291 295 293 297 294 293 291 290 294 289 289 308 308 301 302 307 311
303 302 302 302 303 303 304 304 304 303 303 302 290 296 296 288 288 294 295 295 293 292 287 286 284 284 287 284 286 288 288 292 291 288 298 290 295 291 292 294 305 308 307 310 310 308 311
Wind_Speed
16 17 17 18 18 18 18 18 18 18 19 19 20 21 21 21 21 21 20 20 20 19 18 15 12 8 2 0 13 7 6 9 8 7 7 6 5 5 4 3 4 6 8 6 12 14 18
16 16 17 18 18 19 18 18 19 19 19 20 21 22 22 23 23 22 21 21 20 20 17 14 8 2 1 5 7 5 9 6 5 6 6 7 8 7 5 4 4 5 6 10 4 15 18
16 17 17 18 19 20 20 20 20 21 21 21 21 23 23 24 24 24 22 21 21 19 17 11 5 4 2 17 4 7 4 3 8 7 6 7 3 2 2 10 5 4 5 9 9 16 9
17 17 18 19 19 21 21 21 22 22 23 23 23 23 25 25 25 25 24 24 23 20 12 7 5 4 9 6 7 6 7 7 7 7 5 8 4 6 7 5 9 5 3 1 4 12 16
17 18 19 19 20 21 22 22 23 24 24 25 24 24 25 26 26 26 25 27 23 10 6 4 5 3 12 12 5 11 9 10 8 5 6 7 3 4 6 4 7 7 4 3 7 7 10
17 18 18 20 21 22 22 23 24 24 25 26 25 25 26 26 26 25 26 22 9 3 4 5 5 2 6 4 5 5 9 13 5 4 7 0 6 2 5 5 5 5 3 4 6 6 7
16 18 19 21 22 23 24 24 25 26 26 27 27 26 27 27 26 23 15 5 6 3 1 7 7 7 9 4 6 5 5 5 4 4 5 4 3 6 10 8 9 5 5 8 7 9 8
16 17 19 21 21 23 23 24 25 25 26 27 28 28 29 29 27 26 2 3 5 2 12 16 19 19 20 3 6 10 4 6 5 5 2 4 6 13 7 7 6 6 7 13 9 13 9
16 17 18 20 21 22 24 24 25 25 26 27 27 27 28 31 31 3 3 6 8 8 4 10 9 8 8 11 11 14 9 7 6 4 5 8 12 9 10 9 8 11 7 10 10 3 7
16 18 19 21 20 22 25 26 27 27 27 27 28 27 26 31 4 6 6 7 10 1 5 10 4 7 8 6 6 10 13 11 3 10 6 8 15 13 9 9 8 8 10 9 8 5 4
17 18 19 19 21 23 23 25 27 28 28 29 28 27 23 14 6 3 7 10 11 6 4 5 2 0 6 10 4 5 8 3 10 9 6 10 6 5 6 14 13 15 10 7 6 5 3
16 18 19 21 23 23 24 26 27 29 31 31 31 27 20 2 1 10 9 10 4 7 5 5 6 10 5 4 4 3 4 3 6 7 6 13 6 5 9 13 7 10 4 5 5 5 2
16 18 20 21 23 23 24 26 27 29 31 33 32 31 11 3 5 4 6 5 7 4 6 5 12 16 9 5 7 5 4 5 7 4 6 6 13 5 6 8 7 3 7 3 5 4 7
16 17 19 20 22 23 25 27 29 30 31 35 34 27 6 6 6 5 5 7 2 5 6 7 13 12 4 14 7 7 4 8 5 5 4 6 10 4 5 8 8 8 10 8 8 4 5
16 17 19 21 22 23 25 26 28 30 32 35 28 5 2 6 6 3 7 5 6 3 5 9 12 6 3 15 7 7 2 4 7 11 11 6 14 11 9 5 7 6 3 9 6 1 2
16 17 19 20 21 23 24 25 27 31 33 32 5 5 5 5 7 5 7 4 4 3 8 10 5 4 13 11 8 8 4 4 6 3 6 10 9 17 17 2 8 8 7 2 3 6 5
15 16 18 18 19 22 23 24 25 29 33 27 3 5 5 2 5 6 3 6 4 9 7 5 4 6 5 8 5 4 4 9 1 8 6 4 2 18 3 5 8 4 2 4 5 6 7
13 15 16 18 19 21 22 25 26 26 30 9 4 3 4 5 5 1 1 5 6 11 7 5 4 3 3 6 5 5 4 4 8 1 5 3 4 9 15 10 7 6 6 7 7 5 2
12 14 16 17 17 19 22 24 26 25 19 5 3 4 5 5 3 4 7 6 4 7 6 4 3 4 3 3 6 10 9 15 24 14 8 6 3 5 9 7 1 3 5 4 6 5 6
11 12 14 16 18 18 21 24 26 28 26 3 2 5 6 6 3 3 5 5 7 7 7 1 4 5 4 4 2 4 11 8 13 4 8 4 1 5 11 12 6 4 4 5 6 5 5
10 11 13 15 17 19 20 22 25 28 31 2 3 1 1 5 3 5 2 3 7 10 7 11 4 4 1 5 7 5 3 7 12 10 8 7 2 6 18 16 9 9 7 8 5 6 7
9 11 12 14 15 17 18 19 21 27 28 4 3 4 5 3 5 6 6 6 9 12 5 7 4 5 3 2 3 14 4 4 6 5 4 4 6 11 19 13 15 9 11 9 7 5 4
8 9 11 13 14 15 16 18 19 22 13 4 4 4 4 4 5 4 3 7 8 9 5 6 8 4 1 1 12 16 17 9 8 3 2 2 3 5 10 15 18 9 8 7 5 6 10
8 9 9 11 13 13 14 16 17 16 11 2 3 1 3 5 2 3 8 9 11 9 4 9 7 6 7 15 14 5 9 16 15 15 13 7 6 6 7 12 11 5 7 9 9 7 7
7 8 9 10 11 12 13 14 14 14 13 1 2 2 1 3 3 7 13 6 7 6 5 7 4 4 12 9 4 6 5 6 12 17 17 17 6 3 6 6 11 11 6 5 7 7 9
7 7 9 9 10 11 11 12 12 12 13 2 2 2 2 2 4 5 5 5 4 4 6 5 5 9 5 3 2 4 5 3 6 7 5 5 5 8 3 4 8 6 7 10 6 1 5
7 8 9 9 10 11 11 11 10 12 12 3 4 2 2 1 6 4 2 3 4 3 4 6 9 9 4 3 3 4 6 5 5 4 4 2 3 4 3 5 7 8 16 5 4 5 16
9 9 8 9 9 10 10 10 9 9 10 5 5 1 2 3 8 5 3 1 3 1 2 5 8 4 5 6 3 3 3 4 4 4 4 4 4 3 2 2 6 5 7 4 3 12 16
9 7 9 10 10 9 9 9 8 9 8 6 2 4 2 3 7 11 17 16 13 19 4 3 5 2 4 2 3 4 4 4 3 4 3 3 3 4 5 6 6 6 7 5 3 13 14
Wind_Direction
25 21 19 18 13 8 4 2 355 351 345 343 339 338 334 330 328 327 324 320 316 315 315 316 316 317 331 23 251 264 84 103 129 143 188 189 166 169 225 227 10 180 263 274 259 159 142
23 21 18 16 11 7 1 358 355 349 345 341 337 335 333 330 328 326 322 318 312 310 312 309 305 297 164 263 243 190 137 130 148 157 191 164 205 187 279 262 148 246 271 266 144 138 142
22 20 16 14 9 5 360 357 354 349 344 339 335 333 332 330 326 324 320 314 307 306 305 295 259 212 249 238 107 115 129 237 171 190 186 221 169 88 337 322 244 250 280 309 143 138 130
20 17 15 13 7 3 358 354 350 347 342 339 335 331 331 329 325 322 319 312 305 302 292 265 207 190 248 241 251 274 236 266 247 216 214 247 179 228 171 231 357 345 65 232 275 139 169
19 16 15 9 6 1 355 352 348 345 342 339 335 331 328 328 326 323 319 311 307 291 195 147 141 190 266 303 200 225 167 208 219 251 264 271 211 205 357 60 2 7 247 205 294 179 155
19 15 11 7 4 360 354 351 346 344 341 339 335 331 328 326 326 323 321 308 280 117 162 187 256 1 274 263 254 223 172 194 182 229 318 271 50 37 13 78 228 250 313 299 242 281 150
16 13 9 5 2 359 353 349 346 342 340 338 335 332 328 325 325 323 336 355 10 3 296 219 211 234 280 236 311 261 206 174 157 102 177 274 98 236 240 203 227 236 225 249 270 256 183
14 11 8 3 360 355 350 346 342 339 337 335 333 332 329 323 322 322 150 14 237 234 295 231 243 231 249 58 306 291 127 161 130 203 205 358 224 233 237 251 236 255 262 277 283 264 182
12 9 6 2 356 352 350 346 342 339 338 335 332 331 329 321 320 329 248 239 293 324 278 285 220 234 218 174 226 256 176 176 177 206 217 193 241 227 220 254 257 257 231 254 233 338 67
7 5 3 359 353 350 348 346 343 339 337 334 330 331 330 327 353 321 286 279 326 208 21 282 238 254 152 148 276 212 195 162 189 203 236 224 253 244 243 242 214 245 224 236 229 123 206
6 3 0 356 352 349 345 344 343 338 336 332 327 326 326 324 297 318 263 327 317 55 6 297 263 105 139 154 195 211 171 125 181 205 147 246 275 269 251 241 246 251 248 215 155 175 115
2 0 358 355 353 349 346 345 344 341 335 330 325 322 326 134 207 244 309 304 52 44 271 328 30 7 20 276 277 4 133 77 171 198 212 239 249 198 242 275 227 247 232 40 69 110 113
3 3 0 357 352 348 346 344 344 342 334 327 326 316 307 237 237 310 316 32 43 122 321 360 354 350 307 259 260 223 219 210 187 168 256 283 271 262 234 281 312 126 65 330 340 16 209
2 2 0 357 354 348 348 346 344 340 334 327 326 316 193 221 253 358 30 52 105 276 277 342 350 329 23 13 337 293 209 216 234 148 165 206 295 243 250 191 225 216 154 158 207 208 237
0 359 359 357 355 352 348 346 342 339 337 332 326 322 256 256 210 115 67 61 209 258 336 332 332 311 326 345 328 18 27 256 262 177 201 201 258 272 239 275 156 248 152 194 144 233 76
360 358 356 354 352 349 345 345 344 341 339 334 326 337 279 274 139 64 72 217 251 280 307 317 324 316 316 335 327 2 312 269 325 330 223 230 259 257 270 272 290 185 185 84 356 168 224
357 356 356 352 350 349 344 344 348 346 341 332 16 20 266 120 74 50 144 231 286 306 349 319 323 296 300 358 263 289 256 306 11 2 21 349 231 262 128 184 233 303 177 79 122 135 172
2 356 353 351 351 346 344 346 350 354 343 30 358 15 295 24 36 22 73 295 300 354 344 28 347 330 45 308 292 278 253 283 3 124 328 18 247 239 248 231 216 170 217 152 143 234 134
357 356 353 351 352 347 347 348 347 350 1 321 360 276 313 86 56 345 325 303 324 342 337 6 307 50 30 323 343 332 352 3 10 15 13 324 326 321 286 324 34 187 186 142 109 69 185
345 350 351 348 349 351 350 347 348 346 345 133 37 4 331 26 95 52 346 298 322 305 304 80 33 82 345 7 133 309 338 3 343 283 358 31 280 211 262 240 192 198 135 138 117 120 178
339 342 346 347 350 353 353 349 350 348 340 124 32 344 70 326 333 329 240 295 323 0 1 23 59 69 49 328 324 342 330 326 335 55 31 325 267 320 307 267 202 203 200 166 154 162 148
331 338 343 347 349 353 354 354 356 357 341 66 62 37 342 284 297 338 14 347 2 354 351 347 334 294 190 198 211 298 266 153 246 324 359 356 309 336 313 312 226 199 204 176 156 140 130
319 330 336 342 347 352 356 358 3 8 13 41 326 342 105 283 330 3 39 344 342 345 308 344 327 289 222 342 299 272 256 249 230 181 248 243 129 20 295 327 303 241 190 186 167 178 144
303 320 331 338 341 346 351 357 3 12 33 138 268 16 59 284 330 0 338 338 345 349 281 307 9 31 291 306 301 281 260 259 248 243 201 201 188 141 286 323 268 266 283 177 190 183 160
291 312 322 329 334 339 345 351 356 2 5 78 272 55 53 284 317 310 347 324 329 315 289 272 20 267 295 293 309 308 304 276 248 238 233 204 163 137 173 263 288 305 24 357 160 229 175
285 300 310 318 325 327 334 340 348 354 352 17 266 233 86 96 263 17 335 345 321 308 327 292 326 298 287 232 228 237 251 318 304 334 12 62 68 126 187 147 255 240 351 359 359 275 199
283 291 298 311 313 316 321 328 343 346 346 6 278 58 54 244 269 72 281 308 293 359 289 305 327 327 2 324 234 214 248 254 266 264 309 15 48 178 173 238 287 347 321 290 84 242 323
272 278 286 296 300 305 310 315 326 336 343 20 277 294 132 273 280 244 259 204 313 150 222 304 352 342 337 21 347 325 322 304 323 287 260 191 171 211 214 226 269 6 338 335 236 313 305
273 274 284 290 293 302 317 312 308 318 333 356 298 322 344 186 249 293 279 261 228 245 216 230 235 341 261 31 357 340 318 321 325 286 311 316 149 193 180 218 232 187 220 232 284 319 296